User: anonymous   Login
Location: ??????
(30.5519°N, 47.7720°E)
Time: 01:40:05
(UTC+00:00)
Language:

NOSS 3-1 (A) - Orbit

View from above orbital plane
View from above orbital plane
View from above satellite
View from above satellite

Ground track
Ground track

The orbit data is extracted from the following two-line orbital elements,

1 26905U 01040A   21103.89686323 0.00000000  00000-0  00000-0 0    02
2 26905  63.4042  62.7477 0498700   1.7692 358.2029 13.40793820    05
Epoch (UTC): 13 April 2021 21:31:28
Eccentricity: 0.0498700
inclination: 63.4042°
perigee height: 733 km
apogee height: 1479 km
right ascension of ascending node: 62.7477°
argument of perigee: 1.7692°
revolutions per day: 13.40793820
mean anomaly at epoch: 358.2029°
orbit number at epoch: 0

The dashed part of the orbit path shows where the satellite is in the earth's shadow,  

DLR